Location: Unspecified
(0.0000°N, 0.0000°E)
Time: 14:54:03
(UTC+00:00)

Vanguard 1 Rocket - All Passes

Search period start: 01 August 2021 00:00
Search period end: 11 August 2021 00:00
Orbit: 650 x 4226 km, 34.3° (Epoch: 31 July)

Date Brightness Start Highest point End Pass type
(mag) Time Alt. Az. Time Alt. Az. Time Alt. Az.
01 Aug - 01:29:03 10° SSW 01:38:36 17° SSE 01:51:05 10° SE visible
01 Aug - 03:54:26 10° SSW 04:14:46 43° SE 04:38:22 10° E visible
01 Aug - 06:23:12 10° SW 06:49:21 89° NW 07:11:05 10° NE daylight
01 Aug - 08:59:42 10° W 09:22:00 38° NW 09:36:59 10° NNE daylight
01 Aug - 16:53:42 10° N 16:56:25 15° NNE 16:58:58 10° ENE daylight
01 Aug - 19:17:11 10° WNW 19:21:22 42° SSW 19:26:55 10° SE visible
02 Aug - 00:20:06 10° S 00:22:36 10° SSE 00:25:20 10° SSE visible
02 Aug - 02:42:43 10° SSW 02:58:41 30° SSE 03:19:34 10° E visible
02 Aug - 05:09:26 10° SW 05:33:28 70° SE 05:57:32 10° ENE visible
02 Aug - 07:41:39 10° WSW 08:07:08 56° NW 08:25:52 10° NE daylight
02 Aug - 10:26:27 10° WNW 10:39:49 19° NNW 10:49:27 10° N daylight
02 Aug - 18:06:04 10° NW 18:10:30 73° NE 18:15:21 10° ESE daylight
02 Aug - 20:33:51 10° SW 20:36:30 13° SSW 20:39:42 10° S visible
03 Aug - 01:31:55 10° SSW 01:42:44 19° SSE 01:57:19 10° ESE visible
03 Aug - 03:56:50 10° SW 04:17:33 52° SE 04:42:10 10° ENE visible
03 Aug - 06:25:56 10° WSW 06:51:41 77° NW 07:13:45 10° NE daylight
03 Aug - 09:04:11 10° W 09:24:55 32° NW 09:39:24 10° NNE daylight
03 Aug - 16:55:28 10° NNW 16:59:38 26° NNE 17:03:22 10° E daylight
03 Aug - 19:20:59 10° W 19:24:38 24° SSW 19:29:09 10° SSE visible
04 Aug - 00:23:07 10° S 00:27:04 11° SSE 00:31:36 10° SE visible
04 Aug - 02:45:12 10° SSW 03:01:52 36° SE 03:24:19 10° E visible
04 Aug - 05:11:57 10° SW 05:35:52 82° SE 06:00:27 10° NE visible
04 Aug - 07:45:12 10° WSW 08:09:41 47° NW 08:28:18 10° NNE daylight
04 Aug - 10:32:47 10° WNW 10:43:36 16° NNW 10:51:50 10° N daylight
04 Aug - 15:45:32 10° N 15:48:04 13° NNE 15:50:16 10° NE daylight
04 Aug - 18:09:09 10° WNW 18:13:34 59° SW 18:18:17 10° SE daylight
05 Aug - 01:34:29 10° SSW 01:46:28 23° SSE 02:03:14 10° ESE visible
05 Aug - 03:59:16 10° SW 04:20:05 61° SE 04:45:34 10° ENE visible
05 Aug - 06:28:54 10° WSW 06:54:04 66° NW 07:16:16 10° NE daylight
05 Aug - 09:09:14 10° W 09:28:09 26° NNW 09:41:51 10° NNE daylight
05 Aug - 16:57:51 10° NW 17:02:48 48° NE 17:07:01 10° ESE daylight
05 Aug - 19:25:35 10° WSW 19:27:59 14° SSW 19:30:42 10° S visible
06 Aug - 00:25:22 10° S 00:31:16 13° SSE 00:38:36 10° SE visible
06 Aug - 02:47:37 10° SSW 03:04:44 43° SE 03:28:31 10° ENE visible
06 Aug - 05:14:37 10° SW 05:38:11 87° NW 06:03:09 10° NE visible
06 Aug - 07:49:11 10° W 08:12:29 39° NW 08:30:43 10° NNE daylight
06 Aug - 10:39:18 10° NW 10:47:46 14° NNW 10:54:30 10° N daylight
06 Aug - 15:46:49 10° NNW 15:51:32 22° NNE 15:55:10 10° E daylight
06 Aug - 18:12:38 10° W 18:16:39 31° SW 18:20:49 10° SSE daylight
07 Aug - 01:36:54 10° SSW 01:49:49 28° SE 02:08:37 10° E visible
07 Aug - 04:01:47 10° SW 04:22:29 72° SE 04:48:37 10° ENE visible
07 Aug - 06:32:11 10° WSW 06:56:34 56° NW 07:18:42 10° NE daylight
07 Aug - 09:14:52 10° WNW 09:31:48 22° NNW 09:44:26 10° NNE daylight
07 Aug - 14:35:53 10° N 14:39:24 13° NNE 14:42:16 10° NE daylight
07 Aug - 17:00:36 10° NW 17:05:53 90° SW 17:10:15 10° SE daylight
08 Aug - 00:27:29 10° S 00:35:09 16° SSE 00:45:23 10° ESE visible
08 Aug - 02:50:04 10° SW 03:07:19 51° SE 03:32:14 10° ENE visible
08 Aug - 05:17:29 10° WSW 05:40:34 75° NW 06:05:40 10° NE visible
08 Aug - 07:53:39 10° W 08:15:35 33° NNW 08:33:09 10° NNE daylight
08 Aug - 10:45:21 10° NW 10:52:12 12° NNW 10:57:49 10° N daylight
08 Aug - 13:25:03 10° N 13:26:20 10° N 13:27:32 10° NNE daylight
08 Aug - 15:48:52 10° NW 15:54:52 37° NNE 15:59:07 10° E daylight
08 Aug - 18:16:42 10° WSW 18:19:46 18° SW 18:22:53 10° S daylight
09 Aug - 01:39:17 10° SSW 01:52:47 34° SE 02:13:23 10° E visible
09 Aug - 04:04:26 10° SW 04:24:50 83° SE 04:51:24 10° NE visible
09 Aug - 06:35:50 10° WSW 06:59:18 47° NW 07:21:03 10° NE daylight
09 Aug - 09:20:51 10° WNW 09:35:50 19° NNW 09:47:16 10° NNE daylight
09 Aug - 12:10:59 10° N 12:12:11 10° N 12:13:20 10° N daylight
09 Aug - 14:37:03 10° NNW 14:43:04 21° NNE 14:47:16 10° ENE daylight
09 Aug - 17:03:44 10° WNW 17:08:54 48° SW 17:13:06 10° SE daylight
10 Aug - 00:29:37 10° S 00:38:40 20° SE 00:51:35 10° ESE visible
10 Aug - 02:52:34 10° SW 03:09:45 61° SE 03:35:31 10° ENE visible
10 Aug - 05:20:36 10° WSW 05:43:04 64° NW 06:08:02 10° NE visible
10 Aug - 07:58:40 10° W 08:19:05 28° NNW 08:35:43 10° NNE daylight
10 Aug - 10:50:10 10° NNW 10:56:47 12° N 11:02:13 10° NNE daylight
10 Aug - 13:24:42 10° NNW 13:30:19 15° NNE 13:34:31 10° NE daylight
10 Aug - 15:51:18 10° NW 15:58:04 64° NE 16:02:36 10° ESE daylight
